Home > Weather > Jalalabad > Past weeks

Flag for Afghanistan Past Weather in Jalalabad, Afghanistan — Yesterday and Last 2 Weeks

Now
102 °F

Scattered clouds.


Feels Like: 108 °F
Forecast: 79 / 111 °F
Wind: 12 mph from Northeast

Location: Peshawar Airport

Current Time: Jun 26, 2016 at 4:28:42 PM

Latest Report: Jun 26, 2016 at 3:30 PM


Visibility: 3 mi

Pressure: N/A

Humidity: 33%

Dew Point: 68 °F

Location of JalalabadLocation

Past Weather in Jalalabad — Graph

°F

Jalalabad Temperature Yesterday

Maximum temperature yesterday: 106 °F (at 2:30 PM)
Minimum temperature yesterday: 82 °F (at 4:30 AM)
Average temperature yesterday: 95 °F

High & Low Weather Summary for the Past Weeks

 TemperatureHumidityPressure
High108 °F (Jun 14, 3:30 PM)100% (Jun 15, 2:30 PM)30.18 "Hg (Jun 15, 2:30 PM)
Low72 °F (Jun 15, 2:30 PM)23% (Jun 15, 12:30 PM)29.47 "Hg (Jun 16, 4:30 PM)
Average92 °F40%29.59 "Hg
* Reported Jun 11 2:30 PM — Jun 26 3:00 PM, Jalalabad, Weather by CustomWeather, © 2016

Note: Actual official high and low records may vary slightly from our data, if they occured in-between our weather recording intervals... More about our weather records

Advertising

Jalalabad Weather History for the Previous 24 Hours

Scroll right to see more
 ConditionsComfort  
Time TempWeatherWind HumidityBarometerVisibility
3:00 PM
Sun, Jun 26
102 °FHaze.14 mph35%29.53 "Hg3 mi
2:30 PM102 °FHaze.14 mph35%29.53 "Hg3 mi
2:00 PM102 °FHaze.14 mph33%29.56 "Hg2 mi
1:30 PM102 °FHaze.14 mph33%29.56 "Hg2 mi
1:00 PM100 °FSunny.12 mph35%29.59 "Hg3 mi
12:30 PM100 °FSunny.12 mph35%29.59 "Hg3 mi
11:30 AM99 °FSunny.9 mph37%29.62 "Hg3 mi
10:30 AM97 °FSunny.12 mph39%29.65 "Hg2 mi
10:00 AM97 °FSunny.7 mph42%29.65 "Hg2 mi
9:30 AM97 °FSunny.7 mph42%29.65 "Hg2 mi
9:00 AM95 °FSunny.5 mph44%29.65 "Hg2 mi
8:30 AM95 °FSunny.5 mph44%29.65 "Hg2 mi
8:00 AM91 °FHaze.7 mph46%29.65 "Hg2 mi
7:30 AM91 °FHaze.7 mph46%29.65 "Hg2 mi
6:30 AM86 °FHaze.7 mph49%29.65 "Hg2 mi
5:30 AM84 °FHaze.7 mph51%29.62 "Hg2 mi
4:30 AM82 °FHaze.7 mph55%29.62 "Hg2 mi
3:30 AM82 °FHaze.9 mph51%29.62 "Hg2 mi
2:55 AM82 °FHaze.16 mph48%29.62 "Hg2 mi
2:30 AM82 °FHaze.16 mph48%29.62 "Hg2 mi
2:00 AM82 °FHaze.18 mph51%29.62 "Hg2 mi
1:30 AM82 °FHaze.18 mph51%29.62 "Hg2 mi
1:00 AM84 °FHaze.18 mph48%29.62 "Hg2 mi
12:30 AM86 °FHaze.18 mph49%29.62 "Hg2 mi
12:00 AM86 °FHaze.18 mph49%29.62 "Hg2 mi
11:30 PM
Sat, Jun 25
86 °FHaze.18 mph49%29.62 "Hg2 mi
11:00 PM88 °FPassing clouds.21 mph46%29.62 "Hg2 mi
10:30 PM88 °FPassing clouds.21 mph46%29.62 "Hg2 mi
10:00 PM91 °FPassing clouds.23 mph44%29.59 "Hg2 mi
9:30 PM91 °FPassing clouds.23 mph44%29.59 "Hg2 mi
9:00 PM93 °FPassing clouds.14 mph41%29.56 "Hg2 mi
8:30 PM93 °FPassing clouds.14 mph41%29.56 "Hg2 mi
8:00 PM97 °FPassing clouds.12 mph39%29.56 "Hg2 mi
7:30 PM97 °FPassing clouds.12 mph39%29.56 "Hg2 mi
7:00 PM100 °FPassing clouds.14 mph35%N/A2 mi
6:30 PM100 °FScattered clouds.14 mph35%N/A2 mi
6:00 PM102 °FScattered clouds.12 mph35%N/A2 mi
5:30 PM102 °FScattered clouds.12 mph35%N/A2 mi
5:00 PM104 °FScattered clouds.14 mph33%N/A2 mi
4:30 PM104 °FScattered clouds.14 mph33%N/A2 mi
4:00 PM106 °FHaze.12 mph34%N/A2 mi
Weather by CustomWeather, © 2016

See weather overviewHow to use our weather pages